Pasco, WA
on Sunday, November 11, 2012

Sunday
Previous Day Next Day
Daily Summary
 ActualAverageRecord
Temperature
Mean Temperature °F / °C 43°F / 6°C  
Max Temperature 36°F / 2°C 52°F / 11°C 70°F / 21°C (1990)
Min Temperature 22°F / -6°C 33°F / 1°C 18°F / -7°C (2000)
Degree Days
Heating Degree Days 36 22  
Month to date heating degree days 209 224  
Since 1 July heating degree days 653 742  
Cooling Degree Days 0 0  
Month to date cooling degree days 0 0  
Year to date cooling degree days 788 710  
Moisture
Dew Point 28°F / -2°C   
Average Humidity 95    
Maximum Humidity 100    
Minimum Humidity 89    
Precipitation
Precipitation 0.02 in / 0.51 cm 0.04 in / 1.02 cm 0.48 in / 1.22 cm (1983)
Month to date precipitation 0.12 0.35  
Year to date precipitation 7.58 6.88  
Snow
Snow 0.00 in / 0.00 cm in / cm in / cm ()
Snow Depth 0.00 in / 0.00 cm   
Wind
Wind Speed 2 mph / 3 km/h   
Max Wind Speed 10 mph / 16 km/h   
Max Gust Speed 12 mph / 19 km/h   
Visibility 5 miles / 9 kilometers   
Events Rain   

Key: T is trace of precipitation, MM is missing value
Source: NWS Daily Summary
Time(PST)TemperatureDew PointHumidity Pressure Visibility Wind DirectionWind SpeedGust SpeedPrecipitationEvents Conditions
12:53 AM 23.0°F / -5.0°C 21.0°F / -6.1°C 92% 30.29 in / 1025.5 hPa 10.0 miles / 16.1 kilometers NNE 4.6 mph / 7.4 km/h - N/A   Clear
1:34 AM 24.8°F / -4.0°C 21.2°F / -6.0°C 86% 30.29 in / 1025.6 hPa 10.0 miles / 16.1 kilometers Calm Calm - N/A   Scattered Clouds
1:43 AM 24.8°F / -4.0°C 23.0°F / -5.0°C 93% 30.29 in / 1025.6 hPa 10.0 miles / 16.1 kilometers Calm Calm - N/A   Mostly Cloudy
1:53 AM 24.1°F / -4.4°C 23.0°F / -5.0°C 96% 30.31 in / 1026.2 hPa 1.2 miles / 2.0 kilometers Calm Calm - N/A   Overcast
2:00 AM 23.0°F / -5.0°C 21.2°F / -6.0°C 93% 30.29 in / 1025.6 hPa 2.0 miles / 3.2 kilometers Calm Calm - N/A   Overcast
2:14 AM 24.8°F / -4.0°C 21.2°F / -6.0°C 86% 30.29 in / 1025.6 hPa 6.0 miles / 9.7 kilometers Calm Calm - N/A   Mostly Cloudy
2:23 AM 24.8°F / -4.0°C 23.0°F / -5.0°C 93% 30.29 in / 1025.6 hPa 6.0 miles / 9.7 kilometers Calm Calm - N/A   Scattered Clouds
2:51 AM 24.8°F / -4.0°C 23.0°F / -5.0°C 93% 30.29 in / 1025.6 hPa 10.0 miles / 16.1 kilometers Calm Calm - N/A   Mostly Cloudy
2:53 AM 24.1°F / -4.4°C 23.0°F / -5.0°C 96% 30.31 in / 1026.3 hPa 10.0 miles / 16.1 kilometers Calm Calm - N/A   Mostly Cloudy
3:37 AM 26.6°F / -3.0°C 24.8°F / -4.0°C 93% 30.29 in / 1025.6 hPa 1.8 miles / 2.8 kilometers Calm Calm - N/A   Overcast
3:53 AM 26.1°F / -3.3°C 25.0°F / -3.9°C 96% 30.31 in / 1026.3 hPa 1.0 miles / 1.6 kilometers Calm Calm - N/A   Overcast
4:33 AM 26.6°F / -3.0°C 24.8°F / -4.0°C 93% 30.30 in / 1026.0 hPa 2.0 miles / 3.2 kilometers Calm Calm - N/A   Overcast
4:40 AM 26.6°F / -3.0°C 24.8°F / -4.0°C 93% 30.30 in / 1026.0 hPa 1.8 miles / 2.8 kilometers Calm Calm - N/A   Overcast
4:53 AM 26.1°F / -3.3°C 25.0°F / -3.9°C 96% 30.32 in / 1026.6 hPa 0.8 miles / 1.2 kilometers Calm Calm - N/A   Overcast
5:09 AM 26.6°F / -3.0°C 26.6°F / -3.0°C 100% 30.30 in / 1026.0 hPa 3.0 miles / 4.8 kilometers Calm Calm - N/A   Overcast
6:53 AM 28.0°F / -2.2°C 27.0°F / -2.8°C 96% 30.32 in / 1026.8 hPa 2.0 miles / 3.2 kilometers Calm Calm - N/A   Overcast
7:53 AM 30.0°F / -1.1°C 30.0°F / -1.1°C 100% 30.33 in / 1027.0 hPa 2.0 miles / 3.2 kilometers NNW 3.5 mph / 5.6 km/h - N/A   Overcast
8:37 AM 32.0°F / 0.0°C 30.2°F / -1.0°C 93% 30.33 in / 1027.0 hPa 1.0 miles / 1.6 kilometers NNW 3.5 mph / 5.6 km/h - N/A   Overcast
8:53 AM 32.0°F / 0.0°C 32.0°F / 0.0°C 100% 30.35 in / 1027.5 hPa 1.0 miles / 1.6 kilometers Calm Calm - N/A   Overcast
9:53 AM 33.1°F / 0.6°C 33.1°F / 0.6°C 100% 30.36 in / 1027.9 hPa 0.8 miles / 1.2 kilometers Calm Calm - N/A   Overcast
10:53 AM 33.1°F / 0.6°C 32.0°F / 0.0°C 96% 30.36 in / 1028.1 hPa 0.8 miles / 1.2 kilometers Calm Calm - N/A   Overcast
11:53 AM 34.0°F / 1.1°C 32.0°F / 0.0°C 92% 30.35 in / 1027.8 hPa 2.0 miles / 3.2 kilometers NW 4.6 mph / 7.4 km/h - N/A   Overcast
12:53 PM 35.1°F / 1.7°C 33.1°F / 0.6°C 92% 30.35 in / 1027.6 hPa 3.0 miles / 4.8 kilometers WNW 4.6 mph / 7.4 km/h - N/A   Overcast
1:53 PM 36.0°F / 2.2°C 33.1°F / 0.6°C 89% 30.35 in / 1027.7 hPa 3.0 miles / 4.8 kilometers NW 3.5 mph / 5.6 km/h - N/A   Overcast
2:53 PM 36.0°F / 2.2°C 33.1°F / 0.6°C 89% 30.35 in / 1027.7 hPa 10.0 miles / 16.1 kilometers WNW 4.6 mph / 7.4 km/h - N/A   Overcast
3:09 PM 35.6°F / 2.0°C 33.8°F / 1.0°C 93% 30.34 in / 1027.3 hPa 10.0 miles / 16.1 kilometers WNW 4.6 mph / 7.4 km/h - N/A   Overcast
3:53 PM 36.0°F / 2.2°C 33.1°F / 0.6°C 89% 30.35 in / 1027.7 hPa 10.0 miles / 16.1 kilometers WNW 5.8 mph / 9.3 km/h - N/A   Overcast
5:53 PM 35.1°F / 1.7°C 32.0°F / 0.0°C 89% 30.35 in / 1027.7 hPa 10.0 miles / 16.1 kilometers WNW 4.6 mph / 7.4 km/h - N/A   Overcast
6:53 PM 34.0°F / 1.1°C 32.0°F / 0.0°C 92% 30.35 in / 1027.5 hPa 8.0 miles / 12.9 kilometers West 5.8 mph / 9.3 km/h - N/A   Mostly Cloudy
7:53 PM 34.0°F / 1.1°C 32.0°F / 0.0°C 92% 30.34 in / 1027.2 hPa 8.0 miles / 12.9 kilometers WNW 4.6 mph / 7.4 km/h - N/A   Overcast
8:53 PM 35.1°F / 1.7°C 32.0°F / 0.0°C 89% 30.34 in / 1027.2 hPa 9.0 miles / 14.5 kilometers West 4.6 mph / 7.4 km/h - N/A   Overcast
9:53 PM 35.1°F / 1.7°C 33.1°F / 0.6°C 92% 30.33 in / 1026.9 hPa 9.0 miles / 14.5 kilometers WNW 3.5 mph / 5.6 km/h - N/A   Overcast
10:53 PM 35.1°F / 1.7°C 33.1°F / 0.6°C 92% 30.32 in / 1026.7 hPa 8.0 miles / 12.9 kilometers Calm Calm - 0.00 in / 0.0 cm Rain Light Rain
11:53 PM 35.1°F / 1.7°C 34.0°F / 1.1°C 96% 30.32 in / 1026.6 hPa 6.0 miles / 9.7 kilometers Calm Calm - 0.02 in / 0.5 cm Rain Light Rain
Moon Phase
Nov. 11 Nov. 13 Nov. 20 Nov. 28 Dec. 06
Sunrise:06:52 AM (PST) Moon Rise:04:05 AM (PST)11/11
Sunset:04:27 PM (PST) Moon Set:02:59 PM (PST)11/11

Copyright © 2014 The Weather Underground, Inc.